When you browse on this site, cookies collect data to enhance your experience and personalize the content and advertising you see.
Visit our Privacy Policy to learn more. By continuing to use the site, you agree to this use of cookies and data.
  • In United Kingdom
  • List of Countries
  • For 7 days
  • Water Temperature
  • Satellite Maps
  • Weather Map
  • Weather Widgets
  • user-avatar
    Login

    Hourly Weather Djambala

    Today, 26 April, Friday

    Time Temperature Precipitation Wind Pressure Humidity
    00:00 +25°C° 0 mm 2 mps 694 mmHg 90%
    01:00 +24°C° 0 mm 2 mps 694 mmHg 90%
    02:00 +24°C° 0 mm 2 mps 694 mmHg 92%
    03:00 +24°C° 0 mm 2 mps 694 mmHg 94%
    04:00 +24°C° 0 mm 2 mps 693 mmHg 96%
    05:00 +24°C° 0.5 mm 2 mps 694 mmHg 95%
    06:00 +24°C° 0.5 mm 2 mps 694 mmHg 94%
    07:00 +24°C° 0.5 mm 2 mps 695 mmHg 92%
    08:00 +26°C° 1.2 mm 2 mps 695 mmHg 85%
    09:00 +27°C° 1.2 mm 2 mps 696 mmHg 78%
    10:00 +29°C° 1.2 mm 2 mps 696 mmHg 71%
    11:00 +30°C° 0 mm 1 mps 696 mmHg 64%
    12:00 +32°C° 0 mm 1 mps 695 mmHg 57%
    13:00 +33°C° 0 mm 1 mps 695 mmHg 51%
    14:00 +33°C° 0 mm 1 mps 695 mmHg 51%
    15:00 +30°C° 0 mm 0 mps 694 mmHg 51%
    16:00 +30°C° 0 mm 0 mps 694 mmHg 52%
    17:00 +31°C° 0 mm 1 mps 694 mmHg 56%
    18:00 +29°C° 0 mm 1 mps 693 mmHg 60%
    19:00 +28°C° 0 mm 1 mps 693 mmHg 64%
    20:00 +27°C° 0 mm 1 mps 694 mmHg 67%
    21:00 +27°C° 0 mm 1 mps 694 mmHg 71%
    22:00 +26°C° 0 mm 1 mps 694 mmHg 74%
    23:00 +26°C° 0 mm 1 mps 694 mmHg 76%

    Tomorrow, 27 April, Saturday

    Time Temperature Precipitation Wind Pressure Humidity
    00:00 +23°C° 0 mm 0 mps 694 mmHg 78%
    01:00 +23°C° 0 mm 0 mps 693 mmHg 80%
    02:00 +23°C° 0 mm 0 mps 693 mmHg 81%
    03:00 +23°C° 0 mm 0 mps 693 mmHg 81%
    04:00 +25°C° 0 mm 1 mps 693 mmHg 82%
    05:00 +25°C° 0 mm 1 mps 693 mmHg 82%
    06:00 +23°C° 0 mm 0 mps 694 mmHg 82%
    07:00 +23°C° 0 mm 0 mps 694 mmHg 82%
    08:00 +27°C° 0 mm 1 mps 695 mmHg 74%
    09:00 +29°C° 0 mm 1 mps 695 mmHg 67%
    10:00 +31°C° 0 mm 1 mps 696 mmHg 59%
    11:00 +32°C° 0 mm 1 mps 695 mmHg 56%
    12:00 +34°C° 0 mm 2 mps 695 mmHg 52%
    13:00 +35°C° 0 mm 2 mps 694 mmHg 48%
    14:00 +34°C° 0 mm 2 mps 694 mmHg 49%
    15:00 +34°C° 0 mm 2 mps 693 mmHg 51%
    16:00 +34°C° 0 mm 2 mps 692 mmHg 53%
    17:00 +31°C° 0 mm 2 mps 693 mmHg 58%
    18:00 +30°C° 0 mm 2 mps 693 mmHg 63%
    19:00 +28°C° 0 mm 2 mps 693 mmHg 69%
    20:00 +28°C° 0 mm 2 mps 693 mmHg 72%
    21:00 +27°C° 0 mm 2 mps 694 mmHg 75%
    22:00 +26°C° 0 mm 2 mps 694 mmHg 79%
    23:00 +26°C° 0 mm 2 mps 694 mmHg 80%

    Day after tomorrow, 28 April, Sunday

    Time Temperature Precipitation Wind Pressure Humidity
    00:00 +25°C° 0 mm 2 mps 693 mmHg 82%
    01:00 +25°C° 0 mm 2 mps 693 mmHg 83%
    02:00 +25°C° 0.1 mm 2 mps 693 mmHg 84%
    03:00 +24°C° 0.1 mm 2 mps 693 mmHg 85%
    04:00 +24°C° 0.1 mm 2 mps 693 mmHg 86%
    05:00 +24°C° 1.1 mm 2 mps 693 mmHg 88%
    06:00 +24°C° 1.1 mm 2 mps 694 mmHg 90%
    07:00 +24°C° 1.1 mm 2 mps 694 mmHg 93%
    08:00 +25°C° 0 mm 2 mps 695 mmHg 88%
    09:00 +26°C° 0 mm 2 mps 695 mmHg 84%
    10:00 +28°C° 0 mm 3 mps 696 mmHg 79%
    11:00 +29°C° 0.7 mm 2 mps 695 mmHg 70%
    12:00 +31°C° 0.7 mm 2 mps 695 mmHg 61%
    13:00 +33°C° 0.7 mm 1 mps 694 mmHg 52%
    14:00 +32°C° 0 mm 1 mps 694 mmHg 54%
    15:00 +32°C° 0 mm 1 mps 693 mmHg 55%
    16:00 +31°C° 0 mm 1 mps 693 mmHg 57%
    17:00 +30°C° 0 mm 2 mps 693 mmHg 62%
    18:00 +29°C° 0 mm 2 mps 693 mmHg 67%
    19:00 +27°C° 0 mm 2 mps 693 mmHg 72%
    20:00 +27°C° 0.2 mm 2 mps 694 mmHg 76%
    21:00 +26°C° 0.2 mm 2 mps 694 mmHg 79%
    22:00 +26°C° 0.2 mm 2 mps 695 mmHg 83%
    23:00 +25°C° 1.6 mm 2 mps 695 mmHg 85%

    29 April, Monday

    Time Temperature Precipitation Wind Pressure Humidity
    00:00 +25°C° 1.6 mm 2 mps 695 mmHg 87%
    01:00 +25°C° 1.6 mm 2 mps 695 mmHg 89%
    02:00 +25°C° 0.2 mm 2 mps 694 mmHg 89%
    03:00 +24°C° 0.2 mm 2 mps 694 mmHg 89%
    04:00 +24°C° 0.2 mm 2 mps 694 mmHg 90%
    05:00 +24°C° 0 mm 2 mps 694 mmHg 90%
    06:00 +24°C° 0 mm 2 mps 695 mmHg 91%
    07:00 +24°C° 0 mm 2 mps 695 mmHg 92%
    08:00 +25°C° 0.4 mm 2 mps 695 mmHg 87%
    09:00 +26°C° 0.4 mm 2 mps 696 mmHg 83%
    10:00 +27°C° 0.4 mm 2 mps 696 mmHg 79%
    11:00 +29°C° 0.3 mm 2 mps 696 mmHg 71%
    12:00 +30°C° 0.3 mm 2 mps 695 mmHg 63%
    13:00 +32°C° 0.3 mm 2 mps 695 mmHg 55%
    14:00 +31°C° 2.1 mm 2 mps 694 mmHg 60%
    15:00 +30°C° 2.1 mm 1 mps 694 mmHg 65%
    16:00 +29°C° 2.1 mm 1 mps 693 mmHg 70%
    17:00 +28°C° 1.3 mm 1 mps 694 mmHg 75%
    18:00 +27°C° 1.3 mm 1 mps 694 mmHg 80%
    19:00 +25°C° 1.3 mm 1 mps 694 mmHg 85%
    20:00 +25°C° 0 mm 1 mps 695 mmHg 85%
    21:00 +25°C° 0 mm 1 mps 695 mmHg 86%
    22:00 +24°C° 0 mm 1 mps 695 mmHg 86%
    23:00 +24°C° 0.1 mm 1 mps 695 mmHg 87%

    30 April, Tuesday

    Time Temperature Precipitation Wind Pressure Humidity
    00:00 +24°C° 0.1 mm 1 mps 695 mmHg 89%
    01:00 +24°C° 0.1 mm 1 mps 695 mmHg 90%
    02:00 +24°C° 2.1 mm 2 mps 695 mmHg 91%
    03:00 +24°C° 2.1 mm 2 mps 694 mmHg 91%
    04:00 +24°C° 2.1 mm 2 mps 694 mmHg 92%
    05:00 +23°C° 1 mm 2 mps 695 mmHg 92%
    06:00 +23°C° 1 mm 2 mps 695 mmHg 92%
    07:00 +23°C° 1 mm 2 mps 696 mmHg 92%
    08:00 +25°C° 0 mm 2 mps 696 mmHg 84%
    09:00 +27°C° 0 mm 1 mps 697 mmHg 75%
    10:00 +29°C° 0 mm 1 mps 697 mmHg 67%
    11:00 +30°C° 0.3 mm 1 mps 697 mmHg 63%
    12:00 +31°C° 0.3 mm 1 mps 696 mmHg 59%
    13:00 +32°C° 0.3 mm 1 mps 695 mmHg 55%
    14:00 +31°C° 1.5 mm 2 mps 695 mmHg 60%
    15:00 +29°C° 1.5 mm 2 mps 694 mmHg 66%
    16:00 +28°C° 1.5 mm 2 mps 694 mmHg 72%
    17:00 +27°C° 0.3 mm 2 mps 694 mmHg 77%
    18:00 +26°C° 0.3 mm 2 mps 695 mmHg 81%
    19:00 +25°C° 0.3 mm 2 mps 695 mmHg 86%
    20:00 +25°C° 0 mm 2 mps 695 mmHg 87%
    21:00 +25°C° 0 mm 2 mps 695 mmHg 88%
    22:00 +24°C° 0 mm 2 mps 695 mmHg 89%
    23:00 +24°C° 0 mm 2 mps 695 mmHg 89%

    1 May, Wednesday

    Time Temperature Precipitation Wind Pressure Humidity
    00:00 +24°C° 0 mm 2 mps 694 mmHg 90%
    01:00 +23°C° 0 mm 1 mps 694 mmHg 90%
    02:00 +23°C° 0 mm 1 mps 693 mmHg 89%
    03:00 +23°C° 0 mm 1 mps 693 mmHg 89%
    04:00 +23°C° 0 mm 1 mps 693 mmHg 88%
    05:00 +23°C° 0 mm 1 mps 694 mmHg 87%
    06:00 +23°C° 0 mm 1 mps 694 mmHg 86%
    07:00 +24°C° 0 mm 1 mps 695 mmHg 85%
    08:00 +25°C° 0 mm 1 mps 695 mmHg 81%
    09:00 +26°C° 0 mm 1 mps 695 mmHg 77%
    10:00 +27°C° 0 mm 2 mps 695 mmHg 73%
    11:00 +28°C° 0 mm 2 mps 695 mmHg 66%
    12:00 +29°C° 0 mm 2 mps 694 mmHg 59%
    13:00 +31°C° 0 mm 2 mps 694 mmHg 52%
    14:00 +31°C° 0 mm 2 mps 694 mmHg 52%
    15:00 +31°C° 0 mm 2 mps 693 mmHg 52%
    16:00 +31°C° 0 mm 2 mps 693 mmHg 52%
    17:00 +30°C° 0 mm 1 mps 693 mmHg 56%
    18:00 +28°C° 0 mm 1 mps 693 mmHg 61%
    19:00 +27°C° 0 mm 1 mps 694 mmHg 65%
    20:00 +26°C° 0 mm 1 mps 694 mmHg 67%
    21:00 +26°C° 0 mm 1 mps 694 mmHg 68%
    22:00 +25°C° 0 mm 1 mps 694 mmHg 70%
    23:00 +25°C° 0 mm 1 mps 694 mmHg 71%
    Show more